Location: ?????
(31.8092°N, 35.2590°E)
Time: 14:04:19
(UTC+00:00)

In-Cosmos 22 - Pass Details

Date: 20 June 2021
Orbit: 786 x 876 km, 81.2° (Epoch: 31 July)

Event Time Altitude Azimuth Distance (km) Brightness Sun altitude
Exits shadow 18:02:57 - 185° (S) 3,104 6.8 -14.1°
Reaches altitude 10° 18:04:53 10° 185° (S) 2,342 6.2 -14.4°
Maximum altitude 18:10:09 87° 98° (E) 791 4.0 -15.3°
Drops below altitude 10° 18:15:27 10° 8° (N) 2,351 7.0 -16.1°
Sets 18:17:50 0° 9° (N) 3,288 7.8 -16.5°
